Time,TemperatureF,DewpointF,PressureIn,WindDirection,WindDirectionDegrees,WindSpeedMPH,WindSpeedGustMPH,Humidity,HourlyPrecipIn,Conditions,Clouds,dailyrainin,SoftwareType,DateUTC
2013-02-03 00:01:00,25.0,21.0,-100.00,SE,125,0.0,2.0,86,-99.99,,,-99.99,,2013-02-03 07:01:00,
2013-02-03 00:11:00,24.0,21.0,-100.00,NE,35,0.0,2.0,86,-99.99,,,-99.99,,2013-02-03 07:11:00,
2013-02-03 00:21:00,24.0,21.0,-100.00,NE,35,0.0,2.0,86,-99.99,,,-99.99,,2013-02-03 07:21:00,
2013-02-03 00:31:00,24.0,20.0,-100.00,NE,35,1.0,3.0,86,-99.99,,,-99.99,,2013-02-03 07:31:00,
2013-02-03 00:41:00,24.0,20.0,-100.00,ENE,70,0.0,4.0,86,-99.99,,,-99.99,,2013-02-03 07:41:00,
2013-02-03 00:52:00,24.0,20.0,-100.00,East,90,1.0,3.0,86,-99.99,,,-99.99,,2013-02-03 07:52:00,
2013-02-03 01:01:00,23.0,20.0,-100.00,East,80,0.0,2.0,86,-99.99,,,-99.99,,2013-02-03 08:01:00,
2013-02-03 01:11:00,23.0,20.0,-100.00,East,80,0.0,2.0,86,-99.99,,,-99.99,,2013-02-03 08:11:00,
2013-02-03 01:22:00,23.0,20.0,-100.00,ENE,75,1.0,2.0,86,-99.99,,,-99.99,,2013-02-03 08:22:00,
2013-02-03 01:32:00,23.0,20.0,-100.00,ENE,75,1.0,2.0,86,-99.99,,,-99.99,,2013-02-03 08:32:00,
2013-02-03 01:41:00,23.0,19.0,-100.00,ENE,70,0.0,3.0,86,-99.99,,,-99.99,,2013-02-03 08:41:00,
2013-02-03 01:52:00,22.0,19.0,-100.00,East,85,0.0,1.0,86,-99.99,,,-99.99,,2013-02-03 08:52:00,
2013-02-03 02:02:00,22.0,19.0,-100.00,East,85,0.0,1.0,86,-99.99,,,-99.99,,2013-02-03 09:02:00,
2013-02-03 02:11:00,22.0,19.0,-100.00,NE,40,0.0,4.0,86,-99.99,,,-99.99,,2013-02-03 09:11:00,
2013-02-03 02:21:00,22.0,19.0,-100.00,East,80,0.0,4.0,86,-99.99,,,-99.99,,2013-02-03 09:21:00,
2013-02-03 02:31:00,22.0,19.0,-100.00,East,80,0.0,4.0,86,-99.99,,,-99.99,,2013-02-03 09:31:00,
2013-02-03 02:41:00,22.0,19.0,-100.00,ENE,60,1.0,4.0,86,-99.99,,,-99.99,,2013-02-03 09:41:00,
2013-02-03 02:51:00,22.0,19.0,-100.00,ENE,60,1.0,4.0,86,-99.99,,,-99.99,,2013-02-03 09:51:00,
2013-02-03 03:01:00,22.0,19.0,-100.00,NE,55,0.0,2.0,86,-99.99,,,-99.99,,2013-02-03 10:01:00,
2013-02-03 03:11:00,22.0,19.0,-100.00,ENE,60,0.0,2.0,86,-99.99,,,-99.99,,2013-02-03 10:11:00,
2013-02-03 03:21:00,22.0,19.0,-100.00,ENE,60,0.0,2.0,86,-99.99,,,-99.99,,2013-02-03 10:21:00,
2013-02-03 03:31:00,22.0,19.0,-100.00,ENE,60,0.0,2.0,86,-99.99,,,-99.99,,2013-02-03 10:31:00,
2013-02-03 03:41:00,22.0,19.0,-100.00,NE,50,1.0,3.0,86,-99.99,,,-99.99,,2013-02-03 10:41:00,
2013-02-03 03:52:00,22.0,18.0,-100.00,ENE,65,1.0,3.0,86,-99.99,,,-99.99,,2013-02-03 10:52:00,
2013-02-03 04:01:00,22.0,18.0,-100.00,NNE,25,0.0,4.0,86,-99.99,,,-99.99,,2013-02-03 11:01:00,
2013-02-03 04:11:00,22.0,18.0,-100.00,ENE,75,0.0,2.0,86,-99.99,,,-99.99,,2013-02-03 11:11:00,
2013-02-03 04:22:00,21.0,18.0,-100.00,ENE,75,0.0,4.0,86,-99.99,,,-99.99,,2013-02-03 11:22:00,
2013-02-03 04:31:00,21.0,18.0,-100.00,ENE,75,0.0,4.0,86,-99.99,,,-99.99,,2013-02-03 11:31:00,
2013-02-03 04:41:00,21.0,18.0,-100.00,East,85,0.0,3.0,86,-99.99,,,-99.99,,2013-02-03 11:41:00,
2013-02-03 04:52:00,21.0,18.0,-100.00,ESE,110,0.0,3.0,86,-99.99,,,-99.99,,2013-02-03 11:52:00,
2013-02-03 05:02:00,21.0,18.0,-100.00,ESE,110,0.0,3.0,86,-99.99,,,-99.99,,2013-02-03 12:02:00,
2013-02-03 05:11:00,21.0,18.0,-100.00,ENE,65,0.0,3.0,86,-99.99,,,-99.99,,2013-02-03 12:11:00,
2013-02-03 05:21:00,21.0,18.0,-100.00,ENE,65,0.0,3.0,86,-99.99,,,-99.99,,2013-02-03 12:21:00,
2013-02-03 05:32:00,21.0,17.0,-100.00,NNW,345,0.0,1.0,86,-99.99,,,-99.99,,2013-02-03 12:32:00,
2013-02-03 05:42:00,21.0,18.0,-100.00,ENE,65,0.0,4.0,87,-99.99,,,-99.99,,2013-02-03 12:42:00,
2013-02-03 05:52:00,21.0,18.0,-100.00,ENE,65,0.0,4.0,87,-99.99,,,-99.99,,2013-02-03 12:52:00,
2013-02-03 06:03:00,20.0,17.0,-100.00,ESE,105,0.0,4.0,87,-99.99,,,-99.99,,2013-02-03 13:03:00,
2013-02-03 06:11:00,20.0,17.0,-100.00,NE,50,0.0,4.0,87,-99.99,,,-99.99,,2013-02-03 13:11:00,
2013-02-03 06:21:00,20.0,17.0,-100.00,NNE,20,1.0,4.0,87,-99.99,,,-99.99,,2013-02-03 13:21:00,
2013-02-03 06:32:00,20.0,17.0,-100.00,NNE,20,1.0,4.0,87,-99.99,,,-99.99,,2013-02-03 13:32:00,
2013-02-03 06:41:00,20.0,17.0,-100.00,NE,35,1.0,2.0,87,-99.99,,,-99.99,,2013-02-03 13:41:00,
2013-02-03 06:52:00,20.0,17.0,-100.00,East,80,0.0,3.0,87,-99.99,,,-99.99,,2013-02-03 13:52:00,
2013-02-03 07:02:00,20.0,17.0,-100.00,NW,305,0.0,2.0,87,-99.99,,,-99.99,,2013-02-03 14:02:00,
2013-02-03 07:11:00,20.0,17.0,-100.00,East,90,1.0,2.0,87,-99.99,,,-99.99,,2013-02-03 14:11:00,
2013-02-03 07:21:00,20.0,17.0,-100.00,NNW,340,0.0,4.0,88,-99.99,,,-99.99,,2013-02-03 14:21:00,
2013-02-03 07:31:00,20.0,17.0,-100.00,NE,50,0.0,2.0,88,-99.99,,,-99.99,,2013-02-03 14:31:00,
2013-02-03 07:42:00,20.0,17.0,-100.00,NE,40,1.0,3.0,88,-99.99,,,-99.99,,2013-02-03 14:42:00,
2013-02-03 07:52:00,20.0,17.0,-100.00,NE,40,1.0,3.0,88,-99.99,,,-99.99,,2013-02-03 14:52:00,
2013-02-03 08:02:00,20.0,17.0,-100.00,NE,50,1.0,1.0,88,-99.99,,,-99.99,,2013-02-03 15:02:00,
2013-02-03 08:11:00,20.0,17.0,-100.00,NNE,20,1.0,6.0,88,-99.99,,,-99.99,,2013-02-03 15:11:00,
2013-02-03 08:21:00,20.0,17.0,-100.00,ESE,105,0.0,2.0,88,-99.99,,,-99.99,,2013-02-03 15:21:00,
2013-02-03 08:32:00,20.0,17.0,-100.00,ESE,105,0.0,2.0,88,-99.99,,,-99.99,,2013-02-03 15:32:00,
2013-02-03 08:41:00,20.0,18.0,-100.00,ENE,75,1.0,6.0,88,-99.99,,,-99.99,,2013-02-03 15:41:00,
2013-02-03 08:51:00,20.0,18.0,-100.00,ENE,75,1.0,6.0,88,-99.99,,,-99.99,,2013-02-03 15:51:00,
2013-02-03 09:02:00,21.0,18.0,-100.00,ENE,60,1.0,4.0,88,-99.99,,,-99.99,,2013-02-03 16:02:00,
2013-02-03 09:11:00,21.0,18.0,-100.00,NE,50,2.0,6.0,88,-99.99,,,-99.99,,2013-02-03 16:11:00,
2013-02-03 09:21:00,21.0,18.0,-100.00,NE,50,2.0,6.0,88,-99.99,,,-99.99,,2013-02-03 16:21:00,
2013-02-03 09:31:00,22.0,19.0,-100.00,NE,35,0.0,4.0,88,-99.99,,,-99.99,,2013-02-03 16:31:00,
2013-02-03 09:41:00,23.0,20.0,-100.00,NNE,20,1.0,6.0,87,-99.99,,,-99.99,,2013-02-03 16:41:00,
2013-02-03 09:52:00,23.0,20.0,-100.00,East,95,0.0,4.0,87,-99.99,,,-99.99,,2013-02-03 16:52:00,
2013-02-03 10:02:00,23.0,20.0,-100.00,East,95,0.0,4.0,87,-99.99,,,-99.99,,2013-02-03 17:02:00,
2013-02-03 10:11:00,24.0,20.0,-100.00,NE,45,0.0,3.0,84,-99.99,,,-99.99,,2013-02-03 17:11:00,
2013-02-03 10:21:00,24.0,20.0,-100.00,NE,45,0.0,3.0,84,-99.99,,,-99.99,,2013-02-03 17:21:00,
2013-02-03 10:31:00,26.0,20.0,-100.00,ENE,60,0.0,2.0,80,-99.99,,,-99.99,,2013-02-03 17:31:00,
2013-02-03 10:41:00,26.0,20.0,-100.00,ENE,60,0.0,2.0,80,-99.99,,,-99.99,,2013-02-03 17:41:00,
2013-02-03 10:52:00,26.0,20.0,-100.00,NNW,330,0.0,3.0,77,-99.99,,,-99.99,,2013-02-03 17:52:00,
2013-02-03 11:01:00,27.0,20.0,-100.00,NW,315,1.0,4.0,75,-99.99,,,-99.99,,2013-02-03 18:01:00,
2013-02-03 11:11:00,28.0,20.0,-100.00,ENE,65,1.0,6.0,73,-99.99,,,-99.99,,2013-02-03 18:11:00,
2013-02-03 11:22:00,28.0,20.0,-100.00,ENE,60,1.0,4.0,71,-99.99,,,-99.99,,2013-02-03 18:22:00,
2013-02-03 11:32:00,28.0,20.0,-100.00,ENE,60,1.0,4.0,71,-99.99,,,-99.99,,2013-02-03 18:32:00,
2013-02-03 11:41:00,28.0,19.0,-100.00,East,80,3.0,6.0,67,-99.99,,,-99.99,,2013-02-03 18:41:00,
2013-02-03 11:51:00,29.0,18.0,-100.00,ENE,65,3.0,6.0,64,-99.99,,,-99.99,,2013-02-03 18:51:00,
2013-02-03 12:01:00,30.0,18.0,-100.00,East,85,4.0,7.0,61,-99.99,,,-99.99,,2013-02-03 19:01:00,
2013-02-03 12:11:00,31.0,18.0,-100.00,East,95,4.0,7.0,58,-99.99,,,-99.99,,2013-02-03 19:11:00,
2013-02-03 12:21:00,32.0,19.0,-100.00,East,90,4.0,6.0,57,-99.99,,,-99.99,,2013-02-03 19:21:00,
2013-02-03 12:31:00,33.0,19.0,-100.00,East,90,4.0,7.0,56,-99.99,,,-99.99,,2013-02-03 19:31:00,
2013-02-03 12:41:00,33.0,19.0,-100.00,ESE,105,3.0,6.0,55,-99.99,,,-99.99,,2013-02-03 19:41:00,
2013-02-03 12:51:00,33.0,19.0,-100.00,ESE,105,3.0,6.0,55,-99.99,,,-99.99,,2013-02-03 19:51:00,
2013-02-03 13:01:00,33.0,19.0,-100.00,South,185,1.0,2.0,53,-99.99,,,-99.99,,2013-02-03 20:01:00,
2013-02-03 13:11:00,32.0,16.0,-100.00,East,100,2.0,2.0,51,-99.99,,,-99.99,,2013-02-03 20:11:00,
2013-02-03 13:21:00,32.0,16.0,-100.00,East,100,2.0,2.0,51,-99.99,,,-99.99,,2013-02-03 20:21:00,
2013-02-03 13:32:00,32.0,15.0,-100.00,East,90,3.0,4.0,49,-99.99,,,-99.99,,2013-02-03 20:32:00,
2013-02-03 13:42:00,33.0,16.0,-100.00,East,95,2.0,5.0,49,-99.99,,,-99.99,,2013-02-03 20:42:00,
2013-02-03 13:52:00,33.0,16.0,-100.00,East,95,2.0,5.0,49,-99.99,,,-99.99,,2013-02-03 20:52:00,
2013-02-03 14:02:00,33.0,17.0,-100.00,ESE,120,1.0,3.0,49,-99.99,,,-99.99,,2013-02-03 21:02:00,
2013-02-03 14:11:00,34.0,16.0,-100.00,SW,215,7.0,10.0,46,-99.99,,,-99.99,,2013-02-03 21:11:00,
2013-02-03 14:21:00,34.0,15.0,-100.00,SW,230,7.0,12.0,45,-99.99,,,-99.99,,2013-02-03 21:21:00,
2013-02-03 14:32:00,34.0,15.0,-100.00,SW,225,9.0,13.0,44,-99.99,,,-99.99,,2013-02-03 21:32:00,
2013-02-03 14:42:00,34.0,15.0,-100.00,SW,225,9.0,13.0,44,-99.99,,,-99.99,,2013-02-03 21:42:00,
2013-02-03 14:51:00,35.0,15.0,-100.00,WSW,245,9.0,17.0,44,-99.99,,,-99.99,,2013-02-03 21:51:00,
2013-02-03 15:01:00,35.0,15.0,-100.00,WSW,240,6.0,11.0,42,-99.99,,,-99.99,,2013-02-03 22:01:00,
2013-02-03 15:11:00,35.0,15.0,-100.00,SW,220,6.0,14.0,42,-99.99,,,-99.99,,2013-02-03 22:11:00,
2013-02-03 15:21:00,35.0,15.0,-100.00,SW,220,6.0,14.0,42,-99.99,,,-99.99,,2013-02-03 22:21:00,
2013-02-03 15:31:00,35.0,13.0,-100.00,SW,235,9.0,12.0,40,-99.99,,,-99.99,,2013-02-03 22:31:00,
2013-02-03 15:41:00,35.0,13.0,-100.00,SW,235,7.0,14.0,38,-99.99,,,-99.99,,2013-02-03 22:41:00,
2013-02-03 15:51:00,35.0,12.0,-100.00,SW,225,7.0,17.0,38,-99.99,,,-99.99,,2013-02-03 22:51:00,
2013-02-03 16:01:00,35.0,12.0,-100.00,SW,225,7.0,17.0,38,-99.99,,,-99.99,,2013-02-03 23:01:00,
2013-02-03 16:11:00,35.0,13.0,-100.00,SW,220,7.0,12.0,39,-99.99,,,-99.99,,2013-02-03 23:11:00,
2013-02-03 16:21:00,35.0,13.0,-100.00,SW,230,8.0,15.0,39,-99.99,,,-99.99,,2013-02-03 23:21:00,
2013-02-03 16:32:00,34.0,13.0,-100.00,SW,225,7.0,14.0,40,-99.99,,,-99.99,,2013-02-03 23:32:00,
2013-02-03 16:41:00,34.0,13.0,-100.00,SW,225,7.0,14.0,40,-99.99,,,-99.99,,2013-02-03 23:41:00,
2013-02-03 16:52:00,34.0,13.0,-100.00,SW,220,6.0,12.0,40,-99.99,,,-99.99,,2013-02-03 23:52:00,
2013-02-03 17:01:00,34.0,13.0,-100.00,SW,220,6.0,12.0,40,-99.99,,,-99.99,,2013-02-04 00:01:00,
2013-02-03 17:11:00,34.0,14.0,-100.00,SSW,205,4.0,11.0,42,-99.99,,,-99.99,,2013-02-04 00:11:00,
2013-02-03 17:21:00,34.0,14.0,-100.00,SW,225,4.0,9.0,42,-99.99,,,-99.99,,2013-02-04 00:21:00,
2013-02-03 17:31:00,33.0,14.0,-100.00,WSW,255,5.0,7.0,43,-99.99,,,-99.99,,2013-02-04 00:31:00,
2013-02-03 17:41:00,33.0,14.0,-100.00,SW,235,8.0,12.0,44,-99.99,,,-99.99,,2013-02-04 00:41:00,
2013-02-03 17:51:00,33.0,15.0,-100.00,SW,235,7.0,11.0,45,-99.99,,,-99.99,,2013-02-04 00:51:00,
2013-02-03 18:01:00,33.0,15.0,-100.00,SW,235,7.0,11.0,45,-99.99,,,-99.99,,2013-02-04 01:01:00,
2013-02-03 18:11:00,33.0,15.0,-100.00,SW,225,6.0,11.0,48,-99.99,,,-99.99,,2013-02-04 01:11:00,
2013-02-03 18:21:00,33.0,15.0,-100.00,SW,225,6.0,11.0,48,-99.99,,,-99.99,,2013-02-04 01:21:00,
2013-02-03 18:31:00,32.0,16.0,-100.00,WSW,245,6.0,12.0,50,-99.99,,,-99.99,,2013-02-04 01:31:00,
2013-02-03 18:41:00,32.0,16.0,-100.00,WSW,245,6.0,12.0,50,-99.99,,,-99.99,,2013-02-04 01:41:00,
2013-02-03 18:52:00,32.0,17.0,-100.00,WSW,250,5.0,6.0,52,-99.99,,,-99.99,,2013-02-04 01:52:00,
2013-02-03 19:01:00,31.0,17.0,-100.00,WSW,240,6.0,9.0,53,-99.99,,,-99.99,,2013-02-04 02:01:00,
2013-02-03 19:11:00,31.0,17.0,-100.00,WSW,240,6.0,9.0,53,-99.99,,,-99.99,,2013-02-04 02:11:00,
2013-02-03 19:21:00,30.0,17.0,-100.00,WSW,245,6.0,9.0,56,-99.99,,,-99.99,,2013-02-04 02:21:00,
2013-02-03 19:31:00,29.0,17.0,-100.00,West,265,6.0,8.0,58,-99.99,,,-99.99,,2013-02-04 02:31:00,
2013-02-03 19:41:00,29.0,17.0,-100.00,West,265,6.0,8.0,58,-99.99,,,-99.99,,2013-02-04 02:41:00,
2013-02-03 19:51:00,29.0,17.0,-100.00,WSW,255,6.0,9.0,60,-99.99,,,-99.99,,2013-02-04 02:51:00,
2013-02-03 20:01:00,29.0,17.0,-100.00,WSW,255,6.0,9.0,60,-99.99,,,-99.99,,2013-02-04 03:01:00,
2013-02-03 20:11:00,29.0,17.0,-100.00,SW,225,6.0,9.0,61,-99.99,,,-99.99,,2013-02-04 03:11:00,
2013-02-03 20:21:00,29.0,18.0,-100.00,WSW,245,6.0,9.0,62,-99.99,,,-99.99,,2013-02-04 03:21:00,
2013-02-03 20:31:00,28.0,17.0,-100.00,SW,235,6.0,7.0,62,-99.99,,,-99.99,,2013-02-04 03:31:00,
2013-02-03 20:41:00,29.0,18.0,-100.00,SW,230,6.0,9.0,63,-99.99,,,-99.99,,2013-02-04 03:41:00,
2013-02-03 20:51:00,29.0,18.0,-100.00,SW,230,6.0,9.0,63,-99.99,,,-99.99,,2013-02-04 03:51:00,
2013-02-03 21:01:00,29.0,18.0,-100.00,SW,230,6.0,9.0,63,-99.99,,,-99.99,,2013-02-04 04:01:00,
2013-02-03 21:11:00,27.0,18.0,-100.00,SW,235,7.0,9.0,66,-99.99,,,-99.99,,2013-02-04 04:11:00,
2013-02-03 21:21:00,26.0,18.0,-100.00,SSE,160,8.0,11.0,68,-99.99,,,-99.99,,2013-02-04 04:21:00,
2013-02-03 21:31:00,26.0,18.0,-100.00,SSE,160,8.0,11.0,68,-99.99,,,-99.99,,2013-02-04 04:31:00,
2013-02-03 21:41:00,25.0,17.0,-100.00,SW,230,6.0,11.0,70,-99.99,,,-99.99,,2013-02-04 04:41:00,
2013-02-03 21:52:00,26.0,18.0,-100.00,West,260,6.0,9.0,70,-99.99,,,-99.99,,2013-02-04 04:52:00,
2013-02-03 22:03:00,26.0,18.0,-100.00,West,275,6.0,8.0,71,-99.99,,,-99.99,,2013-02-04 05:03:00,
2013-02-03 22:11:00,26.0,18.0,-100.00,West,275,6.0,8.0,71,-99.99,,,-99.99,,2013-02-04 05:11:00,
2013-02-03 22:21:00,26.0,18.0,-100.00,West,275,6.0,8.0,71,-99.99,,,-99.99,,2013-02-04 05:21:00,
2013-02-03 22:33:00,26.0,18.0,-100.00,WSW,240,6.0,9.0,71,-99.99,,,-99.99,,2013-02-04 05:33:00,
2013-02-03 22:41:00,25.0,18.0,-100.00,WSW,255,8.0,11.0,71,-99.99,,,-99.99,,2013-02-04 05:41:00,
2013-02-03 22:52:00,25.0,18.0,-100.00,WSW,255,8.0,11.0,71,-99.99,,,-99.99,,2013-02-04 05:52:00,
2013-02-03 23:01:00,25.0,17.0,-100.00,WSW,245,9.0,10.0,72,-99.99,,,-99.99,,2013-02-04 06:01:00,
2013-02-03 23:11:00,25.0,18.0,-100.00,SW,235,7.0,11.0,73,-99.99,,,-99.99,,2013-02-04 06:11:00,
2013-02-03 23:21:00,25.0,18.0,-100.00,SW,235,7.0,11.0,73,-99.99,,,-99.99,,2013-02-04 06:21:00,
2013-02-03 23:31:00,24.0,17.0,-100.00,West,265,6.0,8.0,73,-99.99,,,-99.99,,2013-02-04 06:31:00,
2013-02-03 23:41:00,24.0,17.0,-100.00,WSW,245,4.0,10.0,74,-99.99,,,-99.99,,2013-02-04 06:41:00,
2013-02-03 23:51:00,24.0,17.0,-100.00,WSW,240,6.0,7.0,75,-99.99,,,-99.99,,2013-02-04 06:51:00,